Time,TemperatureF,DewpointF,PressureIn,WindDirection,WindDirectionDegrees,WindSpeedMPH,WindSpeedGustMPH,Humidity,HourlyPrecipIn,Conditions,Clouds,dailyrainin,SoftwareType,DateUTC
2013-03-13 00:00:00,20.3,14.4,30.30,North,0,0.0,0.0,78,0.00,,,0.00,WUHU216HW,2013-03-13 05:00:00,
2013-03-13 00:05:00,20.1,14.2,30.31,North,0,0.0,0.0,78,0.00,,,0.00,WUHU216HW,2013-03-13 05:05:00,
2013-03-13 00:10:00,19.7,13.9,30.30,North,0,0.0,0.0,78,0.00,,,0.00,WUHU216HW,2013-03-13 05:10:00,
2013-03-13 00:15:00,19.7,13.9,30.31,North,0,0.0,0.0,78,0.00,,,0.00,WUHU216HW,2013-03-13 05:15:00,
2013-03-13 00:20:00,19.5,13.7,30.31,North,0,0.0,0.0,78,0.00,,,0.00,WUHU216HW,2013-03-13 05:20:00,
2013-03-13 00:25:00,19.2,13.3,30.31,North,0,0.0,0.0,78,0.00,,,0.00,WUHU216HW,2013-03-13 05:25:00,
2013-03-13 00:30:00,19.0,13.2,30.31,North,0,0.0,0.0,78,0.00,,,0.00,WUHU216HW,2013-03-13 05:30:00,
2013-03-13 00:35:00,18.6,12.8,30.31,North,0,0.0,0.0,78,0.00,,,0.00,WUHU216HW,2013-03-13 05:35:00,
2013-03-13 00:40:00,18.5,12.6,30.31,North,0,0.0,0.0,78,0.00,,,0.00,WUHU216HW,2013-03-13 05:40:00,
2013-03-13 00:45:00,18.5,12.6,30.32,North,0,0.0,0.0,78,0.00,,,0.00,WUHU216HW,2013-03-13 05:45:00,
2013-03-13 00:50:00,18.3,12.5,30.31,North,0,0.0,0.0,78,0.00,,,0.00,WUHU216HW,2013-03-13 05:50:00,
2013-03-13 00:55:00,18.1,12.3,30.31,North,0,0.0,0.0,78,0.00,,,0.00,WUHU216HW,2013-03-13 05:55:00,
2013-03-13 01:00:00,18.1,12.3,30.31,North,0,0.0,0.0,78,0.00,,,0.00,WUHU216HW,2013-03-13 06:00:00,
2013-03-13 01:05:00,18.1,12.3,30.32,North,0,0.0,0.0,78,0.00,,,0.00,WUHU216HW,2013-03-13 06:05:00,
2013-03-13 01:10:00,17.6,11.8,30.32,North,0,0.0,0.0,78,0.00,,,0.00,WUHU216HW,2013-03-13 06:10:00,
2013-03-13 01:15:00,17.0,11.3,30.32,North,0,0.0,0.0,78,0.00,,,0.00,WUHU216HW,2013-03-13 06:15:00,
2013-03-13 01:20:00,16.8,11.1,30.32,North,0,0.0,0.0,78,0.00,,,0.00,WUHU216HW,2013-03-13 06:20:00,
2013-03-13 01:25:00,16.7,10.9,30.32,North,0,0.0,0.0,78,0.00,,,0.00,WUHU216HW,2013-03-13 06:25:00,
2013-03-13 01:30:00,16.7,10.9,30.32,North,0,0.0,0.0,79,0.00,,,0.00,WUHU216HW,2013-03-13 06:30:00,
2013-03-13 01:35:00,16.7,10.9,30.32,North,0,0.0,0.0,80,0.00,,,0.00,WUHU216HW,2013-03-13 06:35:00,
2013-03-13 01:40:00,16.5,11.1,30.32,North,0,0.0,0.0,79,0.00,,,0.00,WUHU216HW,2013-03-13 06:40:00,
2013-03-13 01:45:00,16.3,10.9,30.32,North,0,0.0,0.0,79,0.00,,,0.00,WUHU216HW,2013-03-13 06:45:00,
2013-03-13 01:50:00,16.1,10.7,30.32,North,0,0.0,0.0,79,0.00,,,0.00,WUHU216HW,2013-03-13 06:50:00,
2013-03-13 01:55:00,15.9,10.6,30.33,North,0,0.0,0.0,79,0.00,,,0.00,WUHU216HW,2013-03-13 06:55:00,
2013-03-13 02:00:00,15.9,10.6,30.33,North,0,0.0,0.0,79,0.00,,,0.00,WUHU216HW,2013-03-13 07:00:00,
2013-03-13 02:05:00,15.9,10.6,30.33,North,0,0.0,0.0,79,0.00,,,0.00,WUHU216HW,2013-03-13 07:05:00,
2013-03-13 02:10:00,15.9,10.6,30.33,North,0,0.0,0.0,79,0.00,,,0.00,WUHU216HW,2013-03-13 07:10:00,
2013-03-13 02:15:00,15.6,10.2,30.33,North,0,0.0,0.0,79,0.00,,,0.00,WUHU216HW,2013-03-13 07:15:00,
2013-03-13 02:21:00,15.6,10.2,30.33,North,0,0.0,0.0,79,0.00,,,0.00,WUHU216HW,2013-03-13 07:21:00,
2013-03-13 02:26:00,15.4,10.4,30.33,North,0,0.0,0.0,80,0.00,,,0.00,WUHU216HW,2013-03-13 07:26:00,
2013-03-13 02:31:00,15.0,10.0,30.33,North,0,0.0,0.0,80,0.00,,,0.00,WUHU216HW,2013-03-13 07:31:00,
2013-03-13 02:36:00,15.0,10.0,30.33,North,0,0.0,0.0,80,0.00,,,0.00,WUHU216HW,2013-03-13 07:36:00,
2013-03-13 02:41:00,14.9,9.8,30.33,North,0,0.0,0.0,80,0.00,,,0.00,WUHU216HW,2013-03-13 07:41:00,
2013-03-13 02:46:00,14.7,9.6,30.33,North,0,0.0,0.0,80,0.00,,,0.00,WUHU216HW,2013-03-13 07:46:00,
2013-03-13 02:51:00,14.5,9.5,30.33,North,0,0.0,0.0,80,0.00,,,0.00,WUHU216HW,2013-03-13 07:51:00,
2013-03-13 02:56:00,14.3,9.3,30.33,North,0,0.0,0.0,80,0.00,,,0.00,WUHU216HW,2013-03-13 07:56:00,
2013-03-13 03:01:00,14.1,9.1,30.33,North,0,0.0,0.0,80,0.00,,,0.00,WUHU216HW,2013-03-13 08:01:00,
2013-03-13 03:08:00,14.1,9.1,30.34,North,0,0.0,0.0,80,0.00,,,0.00,WUHU216HW,2013-03-13 08:08:00,
2013-03-13 03:17:00,13.8,8.7,30.33,North,0,0.0,0.0,80,0.00,,,0.00,WUHU216HW,2013-03-13 08:17:00,
2013-03-13 03:22:00,13.6,8.6,30.33,North,0,0.0,0.0,80,0.00,,,0.00,WUHU216HW,2013-03-13 08:22:00,
2013-03-13 03:27:00,13.6,8.6,30.33,North,0,0.0,0.0,81,0.00,,,0.00,WUHU216HW,2013-03-13 08:27:00,
2013-03-13 03:32:00,13.6,8.6,30.34,North,0,0.0,0.0,80,0.00,,,0.00,WUHU216HW,2013-03-13 08:32:00,
2013-03-13 03:37:00,13.2,8.2,30.34,North,0,0.0,0.0,80,0.00,,,0.00,WUHU216HW,2013-03-13 08:37:00,
2013-03-13 03:42:00,13.1,8.0,30.33,North,0,0.0,0.0,80,0.00,,,0.00,WUHU216HW,2013-03-13 08:42:00,
2013-03-13 03:47:00,13.2,8.2,30.33,North,0,0.0,0.0,80,0.00,,,0.00,WUHU216HW,2013-03-13 08:47:00,
2013-03-13 03:52:00,13.6,8.8,30.33,North,0,0.0,0.0,81,0.00,,,0.00,WUHU216HW,2013-03-13 08:52:00,
2013-03-13 03:57:00,13.8,9.3,30.34,North,0,0.0,0.0,82,0.00,,,0.00,WUHU216HW,2013-03-13 08:57:00,
2013-03-13 04:02:00,13.8,9.3,30.34,North,0,0.0,0.0,82,0.00,,,0.00,WUHU216HW,2013-03-13 09:02:00,
2013-03-13 04:07:00,14.1,9.6,30.34,North,0,0.0,0.0,82,0.00,,,0.00,WUHU216HW,2013-03-13 09:07:00,
2013-03-13 04:12:00,14.1,9.6,30.34,North,0,0.0,0.0,82,0.00,,,0.00,WUHU216HW,2013-03-13 09:12:00,
2013-03-13 04:17:00,14.1,9.6,30.34,North,0,0.0,0.0,82,0.00,,,0.00,WUHU216HW,2013-03-13 09:17:00,
2013-03-13 04:22:00,14.1,9.6,30.34,North,0,0.0,0.0,82,0.00,,,0.00,WUHU216HW,2013-03-13 09:22:00,
2013-03-13 04:27:00,14.1,9.6,30.34,North,0,0.0,0.0,82,0.00,,,0.00,WUHU216HW,2013-03-13 09:27:00,
2013-03-13 04:32:00,14.1,9.6,30.34,North,0,0.0,0.0,82,0.00,,,0.00,WUHU216HW,2013-03-13 09:32:00,
2013-03-13 04:37:00,14.0,9.5,30.34,North,0,0.0,0.0,82,0.00,,,0.00,WUHU216HW,2013-03-13 09:37:00,
2013-03-13 04:42:00,13.8,9.3,30.34,North,0,0.0,0.0,82,0.00,,,0.00,WUHU216HW,2013-03-13 09:42:00,
2013-03-13 04:47:00,13.6,9.1,30.34,North,0,0.0,0.0,82,0.00,,,0.00,WUHU216HW,2013-03-13 09:47:00,
2013-03-13 04:52:00,13.4,8.9,30.34,North,0,0.0,0.0,82,0.00,,,0.00,WUHU216HW,2013-03-13 09:52:00,
2013-03-13 04:57:00,13.1,8.6,30.34,North,0,0.0,0.0,82,0.00,,,0.00,WUHU216HW,2013-03-13 09:57:00,
2013-03-13 05:02:00,13.1,8.6,30.34,North,0,0.0,0.0,82,0.00,,,0.00,WUHU216HW,2013-03-13 10:02:00,
2013-03-13 05:07:00,13.1,8.6,30.34,North,0,0.0,0.0,82,0.00,,,0.00,WUHU216HW,2013-03-13 10:07:00,
2013-03-13 05:12:00,12.9,8.4,30.34,North,0,0.0,0.0,82,0.00,,,0.00,WUHU216HW,2013-03-13 10:12:00,
2013-03-13 05:17:00,12.9,8.4,30.34,North,0,0.0,0.0,82,0.00,,,0.00,WUHU216HW,2013-03-13 10:17:00,
2013-03-13 05:22:00,12.7,8.2,30.34,North,0,0.0,0.0,82,0.00,,,0.00,WUHU216HW,2013-03-13 10:22:00,
2013-03-13 05:27:00,12.3,7.8,30.35,North,0,0.0,0.0,82,0.00,,,0.00,WUHU216HW,2013-03-13 10:27:00,
2013-03-13 05:32:00,12.3,7.8,30.35,North,0,0.0,0.0,82,0.00,,,0.00,WUHU216HW,2013-03-13 10:32:00,
2013-03-13 05:37:00,12.0,7.5,30.35,North,0,0.0,0.0,82,0.00,,,0.00,WUHU216HW,2013-03-13 10:37:00,
2013-03-13 05:42:00,12.0,7.5,30.35,North,0,0.0,0.0,82,0.00,,,0.00,WUHU216HW,2013-03-13 10:42:00,
2013-03-13 05:47:00,12.0,7.5,30.35,North,0,0.0,0.0,82,0.00,,,0.00,WUHU216HW,2013-03-13 10:47:00,
2013-03-13 05:52:00,12.0,7.5,30.35,North,0,0.0,0.0,82,0.00,,,0.00,WUHU216HW,2013-03-13 10:52:00,
2013-03-13 05:57:00,11.8,7.3,30.36,North,0,0.0,0.0,82,0.00,,,0.00,WUHU216HW,2013-03-13 10:57:00,
2013-03-13 06:02:00,11.8,7.3,30.36,North,0,0.0,0.0,82,0.00,,,0.00,WUHU216HW,2013-03-13 11:02:00,
2013-03-13 06:07:00,11.8,7.3,30.36,North,0,0.0,0.0,82,0.00,,,0.00,WUHU216HW,2013-03-13 11:07:00,
2013-03-13 06:12:00,11.4,6.9,30.36,North,0,0.0,0.0,82,0.00,,,0.00,WUHU216HW,2013-03-13 11:12:00,
2013-03-13 06:17:00,11.4,6.9,30.36,North,0,0.0,0.0,82,0.00,,,0.00,WUHU216HW,2013-03-13 11:17:00,
2013-03-13 06:22:00,11.3,6.8,30.36,North,0,0.0,0.0,82,0.00,,,0.00,WUHU216HW,2013-03-13 11:22:00,
2013-03-13 06:27:00,11.3,6.8,30.36,North,0,0.0,0.0,82,0.00,,,0.00,WUHU216HW,2013-03-13 11:27:00,
2013-03-13 06:32:00,11.4,6.9,30.36,North,0,0.0,0.0,82,0.00,,,0.00,WUHU216HW,2013-03-13 11:32:00,
2013-03-13 06:37:00,11.4,6.9,30.35,North,0,0.0,0.0,82,0.00,,,0.00,WUHU216HW,2013-03-13 11:37:00,
2013-03-13 06:42:00,11.8,7.3,30.35,North,0,0.0,0.0,82,0.00,,,0.00,WUHU216HW,2013-03-13 11:42:00,
2013-03-13 06:47:00,11.8,7.3,30.35,North,0,0.0,0.0,82,0.00,,,0.00,WUHU216HW,2013-03-13 11:47:00,
2013-03-13 06:52:00,11.4,6.9,30.35,North,0,0.0,0.0,82,0.00,,,0.00,WUHU216HW,2013-03-13 11:52:00,
2013-03-13 06:57:00,11.4,6.9,30.35,North,0,0.0,0.0,82,0.00,,,0.00,WUHU216HW,2013-03-13 11:57:00,
2013-03-13 07:02:00,11.4,6.9,30.36,North,0,0.0,0.0,82,0.00,,,0.00,WUHU216HW,2013-03-13 12:02:00,
2013-03-13 07:07:00,11.4,6.9,30.35,North,0,0.0,0.0,82,0.00,,,0.00,WUHU216HW,2013-03-13 12:07:00,
2013-03-13 07:12:00,11.4,6.9,30.35,North,0,0.0,0.0,82,0.00,,,0.00,WUHU216HW,2013-03-13 12:12:00,
2013-03-13 07:17:00,11.4,6.9,30.35,North,0,0.0,0.0,82,0.00,,,0.00,WUHU216HW,2013-03-13 12:17:00,
2013-03-13 07:22:00,11.4,6.9,30.35,North,0,0.0,0.0,82,0.00,,,0.00,WUHU216HW,2013-03-13 12:22:00,
2013-03-13 07:27:00,11.4,6.9,30.35,North,0,0.0,0.0,82,0.00,,,0.00,WUHU216HW,2013-03-13 12:27:00,
2013-03-13 07:32:00,11.4,6.9,30.35,North,0,0.0,0.0,82,0.00,,,0.00,WUHU216HW,2013-03-13 12:32:00,
2013-03-13 07:37:00,11.4,6.9,30.35,North,0,0.0,0.0,82,0.00,,,0.00,WUHU216HW,2013-03-13 12:37:00,
2013-03-13 07:42:00,11.4,6.9,30.35,North,0,0.0,0.0,82,0.00,,,0.00,WUHU216HW,2013-03-13 12:42:00,
2013-03-13 07:47:00,11.4,6.9,30.35,North,0,0.0,0.0,82,0.00,,,0.00,WUHU216HW,2013-03-13 12:47:00,
2013-03-13 07:52:00,11.4,6.9,30.36,North,0,0.0,0.0,82,0.00,,,0.00,WUHU216HW,2013-03-13 12:52:00,
2013-03-13 07:57:00,11.4,6.9,30.35,North,0,0.0,0.0,82,0.00,,,0.00,WUHU216HW,2013-03-13 12:57:00,
2013-03-13 08:06:00,11.6,7.1,30.35,North,0,0.0,0.0,82,0.00,,,0.00,WUHU216HW,2013-03-13 13:06:00,
2013-03-13 08:14:00,12.0,7.5,30.36,North,0,0.0,0.0,82,0.00,,,0.00,WUHU216HW,2013-03-13 13:14:00,
2013-03-13 08:19:00,12.0,7.5,30.35,North,0,0.0,0.0,82,0.00,,,0.00,WUHU216HW,2013-03-13 13:19:00,
2013-03-13 08:24:00,12.5,8.0,30.36,North,0,0.0,0.0,82,0.00,,,0.00,WUHU216HW,2013-03-13 13:24:00,
2013-03-13 08:29:00,12.9,8.6,30.36,North,0,0.0,0.0,83,0.00,,,0.00,WUHU216HW,2013-03-13 13:29:00,
2013-03-13 08:34:00,13.1,8.8,30.35,North,0,0.0,0.0,83,0.00,,,0.00,WUHU216HW,2013-03-13 13:34:00,
2013-03-13 08:39:00,13.4,9.2,30.36,North,0,0.0,0.0,83,0.00,,,0.00,WUHU216HW,2013-03-13 13:39:00,
2013-03-13 08:44:00,13.8,9.5,30.36,North,0,0.0,0.0,83,0.00,,,0.00,WUHU216HW,2013-03-13 13:44:00,
2013-03-13 08:49:00,14.1,9.9,30.35,North,0,0.0,0.0,83,0.00,,,0.00,WUHU216HW,2013-03-13 13:49:00,
2013-03-13 08:54:00,14.7,10.7,30.36,North,0,0.0,0.0,84,0.00,,,0.00,WUHU216HW,2013-03-13 13:54:00,
2013-03-13 08:59:00,15.4,11.4,30.36,North,0,0.0,0.0,84,0.00,,,0.00,WUHU216HW,2013-03-13 13:59:00,
2013-03-13 09:04:00,15.6,11.5,30.36,North,0,0.0,0.0,84,0.00,,,0.00,WUHU216HW,2013-03-13 14:04:00,
2013-03-13 09:09:00,16.5,12.4,30.37,North,0,0.0,0.0,84,0.00,,,0.00,WUHU216HW,2013-03-13 14:09:00,
2013-03-13 09:14:00,17.7,13.6,30.36,North,0,0.0,0.0,84,0.00,,,0.00,WUHU216HW,2013-03-13 14:14:00,
2013-03-13 09:19:00,18.3,14.4,30.36,North,0,0.0,0.0,85,0.00,,,0.00,WUHU216HW,2013-03-13 14:19:00,
2013-03-13 09:24:00,19.2,15.3,30.38,NNW,338,0.0,0.0,85,0.00,,,0.00,WUHU216HW,2013-03-13 14:24:00,
2013-03-13 09:29:00,20.3,16.4,30.38,NNW,338,0.0,0.0,85,0.00,,,0.00,WUHU216HW,2013-03-13 14:29:00,
2013-03-13 09:34:00,20.8,16.9,30.38,NNW,338,0.0,0.0,85,0.00,,,0.00,WUHU216HW,2013-03-13 14:34:00,
2013-03-13 09:39:00,21.9,18.0,30.38,NNW,338,0.0,0.0,85,0.00,,,0.00,WUHU216HW,2013-03-13 14:39:00,
2013-03-13 09:44:00,23.3,19.4,30.38,NNW,338,0.0,0.0,85,0.00,,,0.00,WUHU216HW,2013-03-13 14:44:00,
2013-03-13 09:49:00,23.9,19.7,30.39,NNW,338,0.0,0.0,84,0.00,,,0.00,WUHU216HW,2013-03-13 14:49:00,
2013-03-13 09:54:00,24.2,19.5,30.39,NNW,338,0.0,0.0,82,0.00,,,0.00,WUHU216HW,2013-03-13 14:54:00,
2013-03-13 09:59:00,24.6,19.6,30.40,NNW,338,0.0,0.0,81,0.00,,,0.00,WUHU216HW,2013-03-13 14:59:00,
2013-03-13 10:04:00,25.1,20.1,30.40,NNW,338,0.0,0.0,81,0.00,,,0.00,WUHU216HW,2013-03-13 15:04:00,
2013-03-13 10:09:00,25.5,19.9,30.40,NW,315,0.0,0.0,79,0.00,,,0.00,WUHU216HW,2013-03-13 15:09:00,
2013-03-13 10:14:00,25.8,20.2,30.40,NW,315,0.0,0.0,77,0.00,,,0.00,WUHU216HW,2013-03-13 15:14:00,
2013-03-13 10:19:00,26.2,19.9,30.40,NW,315,0.0,0.0,77,0.00,,,0.00,WUHU216HW,2013-03-13 15:19:00,
2013-03-13 10:24:00,27.3,20.6,30.40,NW,315,0.0,0.0,76,0.00,,,0.00,WUHU216HW,2013-03-13 15:24:00,
2013-03-13 10:29:00,29.3,22.3,30.40,NW,315,0.0,0.0,75,0.00,,,0.00,WUHU216HW,2013-03-13 15:29:00,
2013-03-13 10:34:00,30.3,22.7,30.40,NW,315,0.0,0.0,73,0.00,,,0.00,WUHU216HW,2013-03-13 15:34:00,
2013-03-13 10:39:00,30.3,22.0,30.40,SW,225,0.0,0.0,71,0.00,,,0.00,WUHU216HW,2013-03-13 15:39:00,
2013-03-13 10:44:00,29.4,20.9,30.40,SW,225,0.0,0.0,70,0.00,,,0.00,WUHU216HW,2013-03-13 15:44:00,
2013-03-13 10:49:00,28.9,20.4,30.40,SSW,203,0.0,0.0,70,0.00,,,0.00,WUHU216HW,2013-03-13 15:49:00,
2013-03-13 10:54:00,28.7,20.2,30.39,SSE,158,0.0,0.0,70,0.00,,,0.00,WUHU216HW,2013-03-13 15:54:00,
2013-03-13 10:59:00,28.7,20.2,30.40,SSE,158,0.0,0.0,70,0.00,,,0.00,WUHU216HW,2013-03-13 15:59:00,
2013-03-13 11:04:00,28.9,20.4,30.40,SSE,158,0.0,0.0,70,0.00,,,0.00,WUHU216HW,2013-03-13 16:04:00,
2013-03-13 11:09:00,28.5,20.1,30.39,SSE,158,0.0,0.0,70,0.00,,,0.00,WUHU216HW,2013-03-13 16:09:00,
2013-03-13 11:14:00,28.5,20.1,30.39,SSE,158,0.0,0.0,70,0.00,,,0.00,WUHU216HW,2013-03-13 16:14:00,
2013-03-13 11:19:00,28.9,20.4,30.39,SSE,158,0.0,0.0,70,0.00,,,0.00,WUHU216HW,2013-03-13 16:19:00,
2013-03-13 11:24:00,28.9,20.4,30.39,SE,135,0.0,0.0,70,0.00,,,0.00,WUHU216HW,2013-03-13 16:24:00,
2013-03-13 11:29:00,29.1,20.5,30.40,SE,135,0.0,0.0,70,0.00,,,0.00,WUHU216HW,2013-03-13 16:29:00,
2013-03-13 11:34:00,29.4,20.9,30.40,South,180,0.0,0.0,70,0.00,,,0.00,WUHU216HW,2013-03-13 16:34:00,
2013-03-13 11:39:00,29.3,20.3,30.40,SE,135,0.0,0.0,69,0.00,,,0.00,WUHU216HW,2013-03-13 16:39:00,
2013-03-13 11:44:00,29.3,20.3,30.40,South,180,0.0,0.0,69,0.00,,,0.00,WUHU216HW,2013-03-13 16:44:00,
2013-03-13 11:49:00,29.3,20.3,30.40,SE,135,0.0,0.0,69,0.00,,,0.00,WUHU216HW,2013-03-13 16:49:00,
2013-03-13 11:54:00,29.1,20.2,30.40,SE,135,0.0,0.0,69,0.00,,,0.00,WUHU216HW,2013-03-13 16:54:00,
2013-03-13 11:59:00,29.1,20.2,30.40,SSE,158,1.1,1.1,69,0.00,,,0.00,WUHU216HW,2013-03-13 16:59:00,
2013-03-13 12:04:00,29.1,20.2,30.40,SE,135,0.4,3.5,69,0.00,,,0.00,WUHU216HW,2013-03-13 17:04:00,
2013-03-13 12:09:00,29.1,20.2,30.39,SSE,158,0.0,3.5,69,0.00,,,0.00,WUHU216HW,2013-03-13 17:09:00,
2013-03-13 12:14:00,29.4,20.9,30.39,SSE,158,0.0,0.4,70,0.00,,,0.00,WUHU216HW,2013-03-13 17:14:00,
2013-03-13 12:19:00,29.8,21.2,30.39,SSE,158,0.0,0.6,70,0.00,,,0.00,WUHU216HW,2013-03-13 17:19:00,
2013-03-13 12:24:00,29.8,21.2,30.39,SSE,158,0.0,0.6,69,0.00,,,0.00,WUHU216HW,2013-03-13 17:24:00,
2013-03-13 12:29:00,29.8,21.2,30.39,South,180,3.8,3.8,70,0.00,,,0.00,WUHU216HW,2013-03-13 17:29:00,
2013-03-13 12:34:00,29.8,21.2,30.39,SSE,158,3.5,4.2,71,0.00,,,0.00,WUHU216HW,2013-03-13 17:34:00,
2013-03-13 12:39:00,30.0,21.4,30.39,SSE,158,0.0,4.2,70,0.00,,,0.00,WUHU216HW,2013-03-13 17:39:00,
2013-03-13 12:44:00,30.0,21.4,30.39,SSE,158,1.3,3.5,70,0.00,,,0.00,WUHU216HW,2013-03-13 17:44:00,
2013-03-13 12:49:00,30.3,22.0,30.38,SSE,158,0.0,1.3,71,0.00,,,0.00,WUHU216HW,2013-03-13 17:49:00,
2013-03-13 12:54:00,30.5,21.9,30.38,SSE,158,4.0,6.2,70,0.00,,,0.00,WUHU216HW,2013-03-13 17:54:00,
2013-03-13 12:59:00,30.3,21.7,30.38,SSE,158,0.0,6.2,71,0.00,,,0.00,WUHU216HW,2013-03-13 17:59:00,
2013-03-13 13:04:00,30.3,22.0,30.38,SSE,158,0.0,5.3,71,0.00,,,0.00,WUHU216HW,2013-03-13 18:04:00,
2013-03-13 13:09:00,30.7,22.4,30.37,SSE,158,0.0,5.3,71,0.00,,,0.00,WUHU216HW,2013-03-13 18:09:00,
2013-03-13 13:14:00,30.9,22.2,30.37,SSE,158,1.1,7.8,70,0.00,,,0.00,WUHU216HW,2013-03-13 18:14:00,
2013-03-13 13:19:00,31.1,22.4,30.37,SSE,158,0.0,7.8,70,0.00,,,0.00,WUHU216HW,2013-03-13 18:19:00,
2013-03-13 13:24:00,31.4,22.4,30.37,SE,135,0.0,4.2,69,0.00,,,0.00,WUHU216HW,2013-03-13 18:24:00,
2013-03-13 13:29:00,31.6,22.6,30.36,SE,135,0.0,3.1,67,0.00,,,0.00,WUHU216HW,2013-03-13 18:29:00,
2013-03-13 13:34:00,31.6,22.6,30.37,SSE,158,1.3,3.1,66,0.00,,,0.00,WUHU216HW,2013-03-13 18:34:00,
2013-03-13 13:39:00,31.8,22.1,30.37,SSE,158,0.0,4.2,67,0.00,,,0.00,WUHU216HW,2013-03-13 18:39:00,
2013-03-13 13:44:00,31.8,22.1,30.37,SSE,158,4.0,10.5,67,0.00,,,0.00,WUHU216HW,2013-03-13 18:44:00,
2013-03-13 13:49:00,31.6,22.2,30.36,SSE,158,1.3,10.5,68,0.00,,,0.00,WUHU216HW,2013-03-13 18:49:00,
2013-03-13 13:54:00,32.0,23.0,30.36,SE,135,0.0,6.0,69,0.00,,,0.00,WUHU216HW,2013-03-13 18:54:00,
2013-03-13 13:59:00,32.0,22.2,30.36,SE,135,1.3,6.4,67,0.00,,,0.00,WUHU216HW,2013-03-13 18:59:00,
2013-03-13 14:04:00,31.8,22.1,30.36,SSE,158,1.7,6.4,67,0.00,,,0.00,WUHU216HW,2013-03-13 19:04:00,
2013-03-13 14:09:00,31.8,22.4,30.36,SE,135,5.8,5.8,68,0.00,,,0.00,WUHU216HW,2013-03-13 19:09:00,
2013-03-13 14:14:00,31.8,22.1,30.35,SE,135,5.8,5.8,67,0.00,,,0.00,WUHU216HW,2013-03-13 19:14:00,
2013-03-13 14:19:00,31.6,21.9,30.35,SSE,158,3.1,5.8,67,0.00,,,0.00,WUHU216HW,2013-03-13 19:19:00,
2013-03-13 14:24:00,32.0,22.6,30.34,SE,135,6.9,6.9,68,0.00,,,0.00,WUHU216HW,2013-03-13 19:24:00,
2013-03-13 14:29:00,32.1,22.4,30.34,SE,135,1.1,6.9,67,0.00,,,0.00,WUHU216HW,2013-03-13 19:29:00,
2013-03-13 14:34:00,32.5,23.1,30.34,SE,135,0.0,6.9,68,0.00,,,0.00,WUHU216HW,2013-03-13 19:34:00,
2013-03-13 14:39:00,32.5,22.4,30.34,SSE,158,0.8,6.0,66,0.00,,,0.00,WUHU216HW,2013-03-13 19:39:00,
2013-03-13 14:44:00,32.5,22.7,30.33,SSE,158,4.4,6.0,67,0.00,,,0.00,WUHU216HW,2013-03-13 19:44:00,
2013-03-13 14:49:00,32.5,22.0,30.33,SSE,158,2.2,5.8,66,0.00,,,0.00,WUHU216HW,2013-03-13 19:49:00,
2013-03-13 14:54:00,32.9,22.7,30.32,SE,135,0.0,4.4,66,0.00,,,0.00,WUHU216HW,2013-03-13 19:54:00,
2013-03-13 14:59:00,33.0,22.8,30.32,SSE,158,0.6,6.9,66,0.00,,,0.00,WUHU216HW,2013-03-13 19:59:00,
2013-03-13 15:04:00,33.0,23.2,30.32,SSE,158,6.9,7.1,67,0.00,,,0.00,WUHU216HW,2013-03-13 20:04:00,
2013-03-13 15:09:00,32.7,22.9,30.32,South,180,5.8,8.5,67,0.00,,,0.00,WUHU216HW,2013-03-13 20:09:00,
2013-03-13 15:14:00,32.5,23.1,30.32,SSE,158,4.2,8.5,68,0.00,,,0.00,WUHU216HW,2013-03-13 20:14:00,
2013-03-13 15:19:00,32.7,23.2,30.31,SSE,158,4.0,8.0,68,0.00,,,0.00,WUHU216HW,2013-03-13 20:19:00,
2013-03-13 15:24:00,33.0,23.9,30.31,South,180,5.5,5.5,69,0.00,,,0.00,WUHU216HW,2013-03-13 20:24:00,
2013-03-13 15:29:00,33.4,23.9,30.30,SSE,158,2.6,7.1,68,0.00,,,0.00,WUHU216HW,2013-03-13 20:29:00,
2013-03-13 15:34:00,33.4,23.9,30.31,SSE,158,2.9,7.1,68,0.00,,,0.00,WUHU216HW,2013-03-13 20:34:00,
2013-03-13 15:39:00,33.9,24.4,30.31,South,180,2.0,7.3,68,0.00,,,0.00,WUHU216HW,2013-03-13 20:39:00,
2013-03-13 15:44:00,33.6,24.1,30.31,SSE,158,4.9,9.3,68,0.00,,,0.00,WUHU216HW,2013-03-13 20:44:00,
2013-03-13 15:49:00,33.4,23.9,30.31,SSE,158,4.4,9.3,68,0.00,,,0.00,WUHU216HW,2013-03-13 20:49:00,
2013-03-13 15:54:00,33.4,23.9,30.31,SSE,158,7.6,8.5,68,0.00,,,0.00,WUHU216HW,2013-03-13 20:54:00,
2013-03-13 15:59:00,33.4,23.9,30.31,SSE,158,2.4,8.5,68,0.00,,,0.00,WUHU216HW,2013-03-13 20:59:00,
2013-03-13 16:04:00,33.6,24.1,30.31,South,180,3.8,6.2,69,0.00,,,0.00,WUHU216HW,2013-03-13 21:04:00,
2013-03-13 16:09:00,33.6,24.4,30.31,SSE,158,5.1,7.1,69,0.00,,,0.00,WUHU216HW,2013-03-13 21:09:00,
2013-03-13 16:14:00,33.6,24.1,30.31,South,180,6.9,7.1,68,0.00,,,0.00,WUHU216HW,2013-03-13 21:14:00,
2013-03-13 16:19:00,33.6,24.1,30.31,SSE,158,3.3,6.9,68,0.00,,,0.00,WUHU216HW,2013-03-13 21:19:00,
2013-03-13 16:24:00,33.6,24.1,30.31,SSE,158,4.4,6.9,68,0.00,,,0.00,WUHU216HW,2013-03-13 21:24:00,
2013-03-13 16:30:00,33.9,24.4,30.31,SSE,158,2.4,7.3,68,0.00,,,0.00,WUHU216HW,2013-03-13 21:30:00,
2013-03-13 16:35:00,33.9,24.4,30.30,SSE,158,3.8,7.3,68,0.00,,,0.00,WUHU216HW,2013-03-13 21:35:00,
2013-03-13 16:40:00,34.3,25.1,30.30,SSE,158,6.9,6.9,69,0.00,,,0.00,WUHU216HW,2013-03-13 21:40:00,
2013-03-13 16:45:00,34.5,24.9,30.30,SSE,158,1.1,6.9,68,0.00,,,0.00,WUHU216HW,2013-03-13 21:45:00,
2013-03-13 16:50:00,34.3,24.0,30.30,SSE,158,7.8,7.8,66,0.00,,,0.00,WUHU216HW,2013-03-13 21:50:00,
2013-03-13 16:55:00,34.5,25.3,30.30,SSE,158,0.6,7.8,69,0.00,,,0.00,WUHU216HW,2013-03-13 21:55:00,
2013-03-13 17:00:00,34.5,24.6,30.29,South,180,0.8,6.7,67,0.00,,,0.00,WUHU216HW,2013-03-13 22:00:00,
2013-03-13 17:05:00,34.5,25.3,30.29,SSE,158,0.4,5.1,69,0.00,,,0.00,WUHU216HW,2013-03-13 22:05:00,
2013-03-13 17:10:00,34.5,25.3,30.29,SE,135,3.5,3.5,68,0.00,,,0.00,WUHU216HW,2013-03-13 22:10:00,
2013-03-13 17:15:00,34.7,25.5,30.29,SSE,158,0.0,3.5,69,0.00,,,0.00,WUHU216HW,2013-03-13 22:15:00,
2013-03-13 17:20:00,34.5,24.9,30.29,SSE,158,6.0,6.9,68,0.00,,,0.00,WUHU216HW,2013-03-13 22:20:00,
2013-03-13 17:25:00,34.5,25.3,30.28,SSE,158,3.5,6.9,69,0.00,,,0.00,WUHU216HW,2013-03-13 22:25:00,
2013-03-13 17:30:00,34.1,24.9,30.28,SSE,158,2.4,8.2,69,0.00,,,0.00,WUHU216HW,2013-03-13 22:30:00,
2013-03-13 17:35:00,34.1,25.3,30.28,SSE,158,0.0,8.2,70,0.00,,,0.00,WUHU216HW,2013-03-13 22:35:00,
2013-03-13 17:40:00,34.1,24.9,30.28,South,180,3.3,6.9,69,0.00,,,0.00,WUHU216HW,2013-03-13 22:40:00,
2013-03-13 17:45:00,34.1,24.9,30.28,SSE,158,6.9,6.9,69,0.00,,,0.00,WUHU216HW,2013-03-13 22:45:00,
2013-03-13 17:50:00,33.9,25.1,30.28,South,180,0.0,6.9,70,0.00,,,0.00,WUHU216HW,2013-03-13 22:50:00,
2013-03-13 17:55:00,33.9,25.1,30.28,South,180,0.0,5.8,70,0.00,,,0.00,WUHU216HW,2013-03-13 22:55:00,
2013-03-13 18:00:00,33.9,25.1,30.27,SSE,158,0.0,6.2,71,0.00,,,0.00,WUHU216HW,2013-03-13 23:00:00,
2013-03-13 18:05:00,33.9,25.1,30.27,South,180,0.2,6.2,70,0.00,,,0.00,WUHU216HW,2013-03-13 23:05:00,
2013-03-13 18:10:00,33.9,25.4,30.27,SSE,158,0.0,6.2,71,0.00,,,0.00,WUHU216HW,2013-03-13 23:10:00,
2013-03-13 18:15:00,34.1,25.6,30.26,South,180,3.3,3.3,71,0.00,,,0.00,WUHU216HW,2013-03-13 23:15:00,
2013-03-13 18:20:00,33.9,25.4,30.25,SSE,158,5.1,5.1,71,0.00,,,0.00,WUHU216HW,2013-03-13 23:20:00,
2013-03-13 18:25:00,33.9,25.8,30.25,SE,135,0.0,5.1,72,0.00,,,0.00,WUHU216HW,2013-03-13 23:25:00,
2013-03-13 18:30:00,33.9,25.8,30.25,SSE,158,2.2,5.8,72,0.00,,,0.00,WUHU216HW,2013-03-13 23:30:00,
2013-03-13 18:35:00,33.9,25.8,30.24,SSE,158,0.0,5.8,72,0.00,,,0.00,WUHU216HW,2013-03-13 23:35:00,
2013-03-13 18:40:00,33.9,26.1,30.25,SSE,158,0.8,3.5,73,0.00,,,0.00,WUHU216HW,2013-03-13 23:40:00,
2013-03-13 18:45:00,33.8,25.9,30.24,SSE,158,0.0,2.4,73,0.00,,,0.00,WUHU216HW,2013-03-13 23:45:00,
2013-03-13 18:50:00,33.9,26.1,30.24,SSE,158,0.6,2.4,73,0.00,,,0.00,WUHU216HW,2013-03-13 23:50:00,
2013-03-13 18:55:00,33.6,25.7,30.24,South,180,0.0,2.6,73,0.00,,,0.00,WUHU216HW,2013-03-13 23:55:00,
2013-03-13 19:00:00,33.6,25.7,30.24,SSE,158,0.0,2.6,73,0.00,,,0.00,WUHU216HW,2013-03-14 00:00:00,
2013-03-13 19:05:00,33.4,25.6,30.24,SSE,158,0.0,0.0,73,0.00,,,0.00,WUHU216HW,2013-03-14 00:05:00,
2013-03-13 19:10:00,33.4,25.6,30.25,SSE,158,0.0,0.0,73,0.00,,,0.00,WUHU216HW,2013-03-14 00:10:00,
2013-03-13 19:15:00,33.4,25.6,30.25,SSE,158,0.0,0.0,73,0.00,,,0.00,WUHU216HW,2013-03-14 00:15:00,
2013-03-13 19:20:00,33.0,25.6,30.26,SE,135,0.0,0.0,74,0.00,,,0.00,WUHU216HW,2013-03-14 00:20:00,
2013-03-13 19:25:00,32.9,25.4,30.25,SE,135,0.0,0.0,74,0.00,,,0.00,WUHU216HW,2013-03-14 00:25:00,
2013-03-13 19:30:00,32.7,25.3,30.24,SE,135,0.0,0.0,74,0.00,,,0.00,WUHU216HW,2013-03-14 00:30:00,
2013-03-13 19:35:00,32.1,25.1,30.24,SE,135,0.0,0.0,75,0.00,,,0.00,WUHU216HW,2013-03-14 00:35:00,
2013-03-13 19:40:00,31.8,24.8,30.24,SE,135,0.0,0.0,75,0.00,,,0.00,WUHU216HW,2013-03-14 00:40:00,
2013-03-13 19:45:00,31.6,24.9,30.24,SE,135,0.0,0.0,76,0.00,,,0.00,WUHU216HW,2013-03-14 00:45:00,
2013-03-13 19:50:00,31.2,24.5,30.24,SE,135,0.0,0.0,76,0.00,,,0.00,WUHU216HW,2013-03-14 00:50:00,
2013-03-13 19:55:00,31.1,24.4,30.24,SSE,158,0.0,0.0,76,0.00,,,0.00,WUHU216HW,2013-03-14 00:55:00,
2013-03-13 20:00:00,30.9,24.2,30.24,SSE,158,0.0,0.0,76,0.00,,,0.00,WUHU216HW,2013-03-14 01:00:00,
2013-03-13 20:05:00,30.7,24.0,30.24,SSE,158,0.0,0.0,76,0.00,,,0.00,WUHU216HW,2013-03-14 01:05:00,
2013-03-13 20:10:00,30.5,23.8,30.24,SSE,158,0.0,0.0,76,0.00,,,0.00,WUHU216HW,2013-03-14 01:10:00,
2013-03-13 20:15:00,30.3,23.6,30.23,SSE,158,0.0,0.0,77,0.00,,,0.00,WUHU216HW,2013-03-14 01:15:00,
2013-03-13 20:20:00,30.0,23.6,30.24,SSE,158,0.0,0.0,77,0.00,,,0.00,WUHU216HW,2013-03-14 01:20:00,
2013-03-13 20:25:00,29.8,23.4,30.23,SSE,158,0.0,0.0,77,0.00,,,0.00,WUHU216HW,2013-03-14 01:25:00,
2013-03-13 20:30:00,29.8,23.4,30.22,SSE,158,0.0,0.0,77,0.00,,,0.00,WUHU216HW,2013-03-14 01:30:00,
2013-03-13 20:35:00,29.4,23.1,30.22,SSE,158,0.0,0.0,77,0.00,,,0.00,WUHU216HW,2013-03-14 01:35:00,
2013-03-13 20:40:00,29.3,22.9,30.21,SSE,158,0.0,0.0,77,0.00,,,0.00,WUHU216HW,2013-03-14 01:40:00,
2013-03-13 20:45:00,29.1,22.7,30.21,SSE,158,0.0,0.0,77,0.00,,,0.00,WUHU216HW,2013-03-14 01:45:00,
2013-03-13 20:50:00,29.1,22.7,30.21,SSE,158,0.0,0.0,77,0.00,,,0.00,WUHU216HW,2013-03-14 01:50:00,
2013-03-13 20:55:00,28.9,22.6,30.21,SSE,158,0.0,0.0,77,0.00,,,0.00,WUHU216HW,2013-03-14 01:55:00,
2013-03-13 21:00:00,28.9,22.6,30.21,SSE,158,0.0,0.0,77,0.00,,,0.00,WUHU216HW,2013-03-14 02:00:00,
2013-03-13 21:05:00,28.9,22.6,30.21,SSE,158,0.0,0.0,77,0.00,,,0.00,WUHU216HW,2013-03-14 02:05:00,
2013-03-13 21:10:00,28.9,22.6,30.21,SSE,158,0.0,0.0,78,0.00,,,0.00,WUHU216HW,2013-03-14 02:10:00,
2013-03-13 21:15:00,28.7,22.7,30.21,SSE,158,0.0,0.0,78,0.00,,,0.00,WUHU216HW,2013-03-14 02:15:00,
2013-03-13 21:20:00,28.7,22.7,30.21,SSE,158,0.0,0.0,78,0.00,,,0.00,WUHU216HW,2013-03-14 02:20:00,
2013-03-13 21:25:00,28.5,22.5,30.21,SSE,158,0.0,0.0,78,0.00,,,0.00,WUHU216HW,2013-03-14 02:25:00,
2013-03-13 21:30:00,28.7,22.7,30.21,SSE,158,0.0,0.0,78,0.00,,,0.00,WUHU216HW,2013-03-14 02:30:00,
2013-03-13 21:35:00,28.5,22.5,30.21,SSE,158,0.0,0.0,78,0.00,,,0.00,WUHU216HW,2013-03-14 02:35:00,
2013-03-13 21:40:00,28.5,22.5,30.21,SSE,158,0.0,0.0,78,0.00,,,0.00,WUHU216HW,2013-03-14 02:40:00,
2013-03-13 21:45:00,28.4,22.3,30.22,SE,135,0.0,0.0,78,0.00,,,0.00,WUHU216HW,2013-03-14 02:45:00,
2013-03-13 21:50:00,28.2,21.9,30.21,SE,135,0.0,0.0,77,0.00,,,0.00,WUHU216HW,2013-03-14 02:50:00,
2013-03-13 21:55:00,28.2,21.9,30.21,SE,135,0.0,0.0,77,0.00,,,0.00,WUHU216HW,2013-03-14 02:55:00,
2013-03-13 22:00:00,28.2,21.9,30.21,SSE,158,0.0,0.0,77,0.00,,,0.00,WUHU216HW,2013-03-14 03:00:00,
2013-03-13 22:05:00,28.2,21.9,30.21,SSE,158,0.0,0.0,77,0.00,,,0.00,WUHU216HW,2013-03-14 03:05:00,
2013-03-13 22:10:00,28.2,21.9,30.21,SE,135,0.0,0.0,77,0.00,,,0.00,WUHU216HW,2013-03-14 03:10:00,
2013-03-13 22:15:00,28.2,21.9,30.21,SSE,158,0.0,0.0,77,0.00,,,0.00,WUHU216HW,2013-03-14 03:15:00,
2013-03-13 22:20:00,28.2,21.9,30.21,SSE,158,0.0,0.0,77,0.00,,,0.00,WUHU216HW,2013-03-14 03:20:00,
2013-03-13 22:25:00,28.0,21.7,30.21,SSE,158,0.0,0.0,77,0.00,,,0.00,WUHU216HW,2013-03-14 03:25:00,
2013-03-13 22:30:00,28.0,21.7,30.21,SSE,158,0.0,0.0,77,0.00,,,0.00,WUHU216HW,2013-03-14 03:30:00,
2013-03-13 22:35:00,27.8,21.5,30.20,SSE,158,0.0,0.0,77,0.00,,,0.00,WUHU216HW,2013-03-14 03:35:00,
2013-03-13 22:40:00,27.6,21.3,30.20,SSE,158,0.0,0.0,77,0.00,,,0.00,WUHU216HW,2013-03-14 03:40:00,
2013-03-13 22:45:00,27.5,21.1,30.20,SSE,158,0.0,0.0,77,0.00,,,0.00,WUHU216HW,2013-03-14 03:45:00,
2013-03-13 22:50:00,27.3,21.0,30.20,SSE,158,0.6,0.6,77,0.00,,,0.00,WUHU216HW,2013-03-14 03:50:00,
2013-03-13 22:55:00,27.5,21.1,30.20,SSE,158,0.0,0.6,77,0.00,,,0.00,WUHU216HW,2013-03-14 03:55:00,
2013-03-13 23:00:00,27.5,21.1,30.20,SSE,158,0.0,0.6,77,0.00,,,0.00,WUHU216HW,2013-03-14 04:00:00,
2013-03-13 23:01:00,27.5,21.1,30.20,SSE,158,0.0,0.0,77,0.00,,,0.00,WUHU216HW,2013-03-14 04:01:00,
2013-03-13 23:06:00,27.5,21.1,30.20,SSE,158,0.0,0.0,78,0.00,,,0.00,WUHU216HW,2013-03-14 04:06:00,
2013-03-13 23:11:00,27.6,21.6,30.21,SSE,158,0.0,0.0,78,0.00,,,0.00,WUHU216HW,2013-03-14 04:11:00,
2013-03-13 23:16:00,27.5,21.4,30.20,SSE,158,0.0,0.0,78,0.00,,,0.00,WUHU216HW,2013-03-14 04:16:00,
2013-03-13 23:21:00,27.5,21.4,30.20,SSE,158,0.0,0.0,78,0.00,,,0.00,WUHU216HW,2013-03-14 04:21:00,
2013-03-13 23:26:00,27.5,21.4,30.20,SSE,158,0.0,0.0,78,0.00,,,0.00,WUHU216HW,2013-03-14 04:26:00,
2013-03-13 23:31:00,27.5,21.4,30.20,SSE,158,0.0,0.0,78,0.00,,,0.00,WUHU216HW,2013-03-14 04:31:00,
2013-03-13 23:36:00,27.5,21.4,30.19,SSE,158,0.0,0.0,78,0.00,,,0.00,WUHU216HW,2013-03-14 04:36:00,
2013-03-13 23:41:00,27.5,21.4,30.19,SSE,158,0.0,0.0,78,0.00,,,0.00,WUHU216HW,2013-03-14 04:41:00,
2013-03-13 23:46:00,27.3,21.3,30.19,SSE,158,0.0,0.0,78,0.00,,,0.00,WUHU216HW,2013-03-14 04:46:00,
2013-03-13 23:51:00,27.3,21.3,30.19,SSE,158,0.0,0.0,78,0.00,,,0.00,WUHU216HW,2013-03-14 04:51:00,
2013-03-13 23:56:00,27.3,21.3,30.18,SSE,158,0.0,0.0,78,0.00,,,0.00,WUHU216HW,2013-03-14 04:56:00,